| time (UTC) | temp F | wind direction | speed MPH | gust MPH | rain 1hr in | rain 24hr in | rain mn in | humidity % | barometer mb |
| 20260905072005 | 57 | 262 | 11.0 | 26.0 | 0.01 | 0.57 | 0.57 | 78 | 1003.6 |
| 20260905071005 | 57 | 278 | 11.0 | 25.0 | 0.01 | 0.57 | 0.57 | 76 | 1003.6 |
| 20260905070005 | 59 | 268 | 12.0 | 23.0 | 0.00 | 0.56 | 0.56 | 72 | 1003.1 |
| 20260905065006 | 59 | 263 | 9.0 | 15.0 | 0.00 | 0.56 | 0.56 | 72 | 1002.8 |
| 20260905064006 | 59 | 274 | 9.0 | 16.0 | 0.00 | 0.56 | 0.56 | 71 | 1002.6 |
| 20260905063005 | 59 | 278 | 9.0 | 16.0 | 0.00 | 0.56 | 0.56 | 73 | 1002.8 |
| 20260905062005 | 59 | 273 | 9.0 | 18.0 | 0.00 | 0.56 | 0.56 | 75 | 1002.7 |
| 20260905061005 | 58 | 263 | 6.0 | 26.0 | 0.00 | 0.56 | 0.56 | 74 | 1002.5 |
| 20260905055005 | 62 | 247 | 7.0 | 14.0 | 0.00 | 0.56 | 0.56 | 62 | 1002.1 |
| 20260905054005 | 64 | 267 | 8.0 | 21.0 | 0.00 | 0.56 | 0.56 | 60 | 1002.1 |
| 20260905053005 | 65 | 267 | 10.0 | 23.0 | 0.00 | 0.56 | 0.56 | 58 | 1002.2 |
| 20260905052005 | 65 | 268 | 9.0 | 20.0 | 0.00 | 0.56 | 0.56 | 59 | 1002.1 |
| 20260905050007 | 65 | 279 | 10.0 | 26.0 | 0.00 | 0.56 | 0.56 | 60 | 1002.0 |
| 20260905045004 | 65 | 262 | 8.0 | 20.0 | 0.00 | 0.56 | 0.56 | 63 | 1001.9 |
| 20260905044005 | 65 | 265 | 12.0 | 22.0 | 0.00 | 0.56 | 0.56 | 62 | 1001.8 |
| 20260905043005 | 65 | 267 | 12.0 | 22.0 | 0.00 | 0.56 | 0.56 | 62 | 1001.7 |
| 20260905041005 | 65 | 258 | 12.0 | 23.0 | 0.00 | 0.56 | 0.56 | 62 | 1001.6 |
| 20260905035005 | 64 | 277 | 10.0 | 20.0 | 0.00 | 0.56 | 0.56 | 63 | 1001.6 |
| 20260905034006 | 63 | 270 | 14.0 | 32.0 | 0.00 | 0.56 | 0.56 | 66 | 1001.7 |
| 20260905033005 | 62 | 275 | 16.0 | 28.0 | 0.02 | 0.56 | 0.56 | 69 | 1001.7 |
| 20260905032005 | 61 | 280 | 13.0 | 20.0 | 0.04 | 0.56 | 0.56 | 78 | 1001.8 |
| 20260905031004 | 59 | 276 | 9.0 | 14.0 | 0.04 | 0.56 | 0.56 | 83 | 1001.9 |
| 20260905030005 | 57 | 262 | 9.0 | 18.0 | 0.04 | 0.56 | 0.56 | 84 | 1001.9 |
| 20260905025005 | 57 | 280 | 7.0 | 17.0 | 0.05 | 0.56 | 0.56 | 85 | 1002.0 |
| 20260905024005 | 55 | 257 | 9.0 | 22.0 | 0.05 | 0.56 | 0.56 | 84 | 1002.1 |
| 20260905023005 | 57 | 261 | 11.0 | 26.0 | 0.03 | 0.54 | 0.54 | 76 | 1002.7 |
| 20260905021005 | 64 | 300 | 10.0 | 18.0 | 0.01 | 0.52 | 0.52 | 73 | 1001.3 |
| 20260905015005 | 65 | 312 | 6.0 | 20.0 | 0.00 | 0.51 | 0.51 | 73 | 1001.9 |
| 20260905014005 | 64 | 318 | 11.0 | 22.0 | 0.00 | 0.51 | 0.51 | 75 | 1002.0 |
| 20260905012005 | 63 | 302 | 10.0 | 21.0 | 0.00 | 0.51 | 0.51 | 77 | 1002.2 |
| 20260905011005 | 62 | 312 | 10.0 | 18.0 | 0.00 | 0.51 | 0.51 | 77 | 1002.3 |
| 20260905010004 | 62 | 318 | 7.0 | 15.0 | 0.00 | 0.51 | 0.51 | 79 | 1002.4 |
| 20260905005006 | 61 | 302 | 7.0 | 15.0 | 0.00 | 0.51 | 0.51 | 80 | 1002.5 |
| 20260905004005 | 61 | 337 | 5.0 | 15.0 | 0.00 | 0.51 | 0.51 | 81 | 1002.5 |
| 20260905003004 | 61 | 316 | 5.0 | 12.0 | 0.00 | 0.51 | 0.51 | 81 | 1002.5 |
| 20260905002008 | 60 | 327 | 3.0 | 10.0 | 0.00 | 0.51 | 0.51 | 81 | 1002.5 |
| 20260905000004 | 60 | 326 | 8.0 | 17.0 | 0.00 | 0.51 | 0.51 | 82 | 1002.7 |
| 20260904234005 | 59 | 322 | 7.0 | 17.0 | 0.00 | 0.51 | 0.51 | 85 | 1002.6 |
| 20260904233006 | 59 | 334 | 7.0 | 14.0 | 0.00 | 0.51 | 0.51 | 86 | 1002.7 |
| 20260904232007 | 58 | 355 | 7.0 | 15.0 | 0.00 | 0.51 | 0.51 | 87 | 1002.7 |
| 20260904230004 | 58 | 351 | 6.0 | 16.0 | 0.00 | 0.51 | 0.51 | 88 | 1002.9 |
| 20260904225005 | 57 | 0 | 7.0 | 13.0 | 0.00 | 0.51 | 0.51 | 89 | 1003.0 |
| 20260904222007 | 57 | 356 | 9.0 | 17.0 | 0.03 | 0.51 | 0.51 | 90 | 1003.3 |
| 20260904221006 | 57 | 349 | 8.0 | 15.0 | 0.05 | 0.51 | 0.51 | 90 | 1003.6 |
| 20260904220005 | 56 | 354 | 10.0 | 20.0 | 0.07 | 0.51 | 0.51 | 90 | 1002.9 |
| 20260904215004 | 56 | 8 | 10.0 | 18.0 | 0.09 | 0.51 | 0.51 | 90 | 1002.9 |
| 20260904214005 | 56 | 9 | 11.0 | 18.0 | 0.13 | 0.51 | 0.51 | 90 | 1003.4 |
| 20260904213005 | 56 | 354 | 8.0 | 16.0 | 0.14 | 0.50 | 0.50 | 90 | 1004.2 |
| 20260904211004 | 57 | 349 | 7.0 | 14.0 | 0.12 | 0.46 | 0.46 | 90 | 1004.5 |
| 20260904204005 | 57 | 349 | 6.0 | 14.0 | 0.07 | 0.38 | 0.38 | 89 | 1004.8 |
| 20260904202008 | 57 | 340 | 6.0 | 12.0 | 0.04 | 0.34 | 0.34 | 89 | 1004.6 |
| 20260904201006 | 57 | 354 | 7.0 | 14.0 | 0.04 | 0.34 | 0.34 | 89 | 1004.1 |
| 20260904200005 | 57 | 357 | 8.0 | 14.0 | 0.05 | 0.34 | 0.34 | 88 | 1004.3 |
| 20260904195006 | 57 | 353 | 7.0 | 13.0 | 0.07 | 0.33 | 0.33 | 88 | 1004.6 |
| 20260904194005 | 57 | 352 | 6.0 | 14.0 | 0.09 | 0.31 | 0.31 | 88 | 1005.2 |
| 20260904192005 | 58 | 328 | 7.0 | 14.0 | 0.09 | 0.30 | 0.30 | 88 | 1005.2 |
| 20260904190005 | 58 | 337 | 5.0 | 18.0 | 0.08 | 0.29 | 0.29 | 88 | 1005.4 |
| 20260904185005 | 58 | 338 | 7.0 | 13.0 | 0.06 | 0.26 | 0.26 | 88 | 1005.6 |
| 20260904184005 | 58 | 340 | 6.0 | 13.0 | 0.06 | 0.22 | 0.22 | 89 | 1005.7 |
| 20260904183004 | 58 | 353 | 5.0 | 12.0 | 0.08 | 0.22 | 0.22 | 89 | 1005.3 |
| 20260904182005 | 57 | 343 | 6.0 | 12.0 | 0.07 | 0.21 | 0.21 | 89 | 1004.9 |
| 20260904181005 | 57 | 6 | 5.0 | 13.0 | 0.08 | 0.21 | 0.21 | 89 | 1005.0 |
| 20260904180005 | 57 | 1 | 7.0 | 12.0 | 0.08 | 0.21 | 0.21 | 89 | 1004.9 |
| 20260904174005 | 57 | 346 | 5.0 | 9.0 | 0.04 | 0.16 | 0.16 | 89 | 1005.9 |
| 20260904173005 | 57 | 357 | 2.0 | 12.0 | 0.03 | 0.14 | 0.14 | 88 | 1006.0 |
| 20260904172007 | 57 | 340 | 5.0 | 12.0 | 0.03 | 0.14 | 0.14 | 88 | 1006.4 |
| 20260904171005 | 57 | 1 | 6.0 | 12.0 | 0.03 | 0.13 | 0.13 | 88 | 1006.6 |
| 20260904170005 | 57 | 6 | 5.0 | 13.0 | 0.03 | 0.13 | 0.13 | 88 | 1006.7 |
| 20260904165004 | 57 | 3 | 10.0 | 18.0 | 0.03 | 0.13 | 0.13 | 89 | 1006.4 |
| 20260904164005 | 57 | 12 | 7.0 | 15.0 | 0.02 | 0.12 | 0.12 | 89 | 1006.9 |
| 20260904163005 | 56 | 9 | 5.0 | 10.0 | 0.01 | 0.11 | 0.11 | 89 | 1007.7 |
| 20260904162007 | 56 | 5 | 2.0 | 8.0 | 0.02 | 0.11 | 0.11 | 88 | 1008.3 |
| 20260904161005 | 56 | 9 | 2.0 | 10.0 | 0.01 | 0.10 | 0.10 | 88 | 1008.4 |
| 20260904160005 | 57 | 339 | 2.0 | 10.0 | 0.02 | 0.10 | 0.10 | 88 | 1008.5 |
| 20260904155006 | 57 | 332 | 1.0 | 3.0 | 0.03 | 0.10 | 0.10 | 88 | 1008.7 |
| 20260904153005 | 57 | 331 | 2.0 | 9.0 | 0.10 | 0.10 | 0.10 | 87 | 1009.2 |
| 20260904152005 | 57 | 330 | 3.0 | 8.0 | 0.09 | 0.09 | 0.09 | 87 | 1009.2 |
| 20260904145005 | 58 | 333 | 6.0 | 13.0 | 0.07 | 0.07 | 0.07 | 84 | 1009.7 |
| 20260904144005 | 59 | 324 | 3.0 | 12.0 | 0.03 | 0.03 | 0.03 | 83 | 1009.9 |
| 20260904143006 | 59 | 308 | 5.0 | 13.0 | 0.00 | 0.00 | 0.00 | 82 | 1010.1 |
| 20260904142007 | 59 | 310 | 6.0 | 15.0 | 0.00 | 0.00 | 0.00 | 81 | 1009.7 |
| 20260904141006 | 59 | 313 | 3.0 | 9.0 | 0.00 | 0.00 | 0.00 | 80 | 1009.7 |
| 20260904140007 | 59 | 315 | 3.0 | 12.0 | 0.00 | 0.00 | 0.00 | 80 | 1009.7 |
| 20260904134004 | 59 | 341 | 3.0 | 10.0 | 0.00 | 0.00 | 0.00 | 80 | 1010.1 |
| 20260904133005 | 58 | 350 | 4.0 | 8.0 | 0.00 | 0.00 | 0.00 | 80 | 1010.0 |
| 20260904132005 | 57 | 16 | 3.0 | 6.0 | 0.00 | 0.00 | 0.00 | 81 | 1009.9 |
| 20260904131005 | 57 | 287 | 3.0 | 8.0 | 0.00 | 0.00 | 0.00 | 81 | 1010.2 |
| 20260904125005 | 56 | 18 | 1.0 | 3.0 | 0.00 | 0.00 | 0.00 | 81 | 1010.5 |
| 20260904124005 | 56 | 18 | 2.0 | 3.0 | 0.00 | 0.00 | 0.00 | 81 | 1010.7 |
| 20260904123005 | 56 | 18 | 1.0 | 5.0 | 0.00 | 0.00 | 0.00 | 81 | 1011.0 |
| 20260904121004 | 55 | 319 | 1.0 | 3.0 | 0.00 | 0.00 | 0.00 | 79 | 1011.5 |
| 20260904120005 | 55 | 319 | 0.0 | 2.0 | 0.00 | 0.00 | 0.00 | 78 | 1011.8 |
| 20260904115006 | 55 | 319 | 1.0 | 2.0 | 0.00 | 0.00 | 0.00 | 78 | 1012.0 |
| 20260904114011 | 55 | 319 | 1.0 | 2.0 | 0.00 | 0.00 | 0.00 | 77 | 1012.1 |
| 20260904113012 | 55 | 319 | 1.0 | 2.0 | 0.00 | 0.00 | 0.00 | 77 | 1012.2 |
| 20260904112013 | 55 | 319 | 0.0 | 1.0 | 0.00 | 0.00 | 0.00 | 77 | 1012.4 |
| 20260904111011 | 55 | 319 | 1.0 | 1.0 | 0.00 | 0.00 | 0.00 | 77 | 1012.4 |
| 20260904110011 | 55 | 319 | 1.0 | 3.0 | 0.00 | 0.00 | 0.00 | 77 | 1012.4 |
| 20260904105012 | 55 | 319 | 2.0 | 3.0 | 0.00 | 0.00 | 0.00 | 76 | 1012.5 |
| 20260904104010 | 54 | 318 | 1.0 | 2.0 | 0.00 | 0.00 | 0.00 | 76 | 1012.7 |
| 20260904102013 | 55 | 318 | 0.0 | 2.0 | 0.00 | 0.00 | 0.00 | 75 | 1012.7 |
| 20260904100011 | 55 | 318 | 0.0 | 2.0 | 0.00 | 0.00 | 0.00 | 74 | 1013.0 |
| 20260904095010 | 55 | 318 | 0.0 | 2.0 | 0.00 | 0.00 | 0.00 | 74 | 1013.0 |
| 20260904094013 | 55 | 318 | 0.0 | 2.0 | 0.00 | 0.00 | 0.00 | 74 | 1012.9 |
| 20260904092011 | 56 | 313 | 1.0 | 7.0 | 0.00 | 0.00 | 0.00 | 73 | 1013.2 |
| 20260904091011 | 56 | 319 | 2.0 | 8.0 | 0.00 | 0.00 | 0.00 | 73 | 1013.2 |
| 20260904085011 | 56 | 335 | 5.0 | 12.0 | 0.00 | 0.00 | 0.00 | 73 | 1013.2 |
| 20260904083011 | 57 | 349 | 5.0 | 10.0 | 0.00 | 0.00 | 0.00 | 71 | 1013.4 |
| 20260904082010 | 57 | 354 | 5.0 | 10.0 | 0.00 | 0.00 | 0.00 | 71 | 1013.5 |
| 20260904081011 | 58 | 346 | 3.0 | 8.0 | 0.00 | 0.00 | 0.00 | 70 | 1013.5 |
| 20260904075011 | 58 | 324 | 3.0 | 8.0 | 0.00 | 0.00 | 0.00 | 70 | 1013.8 |
| 20260904074011 | 58 | 355 | 3.0 | 10.0 | 0.00 | 0.00 | 0.00 | 69 | 1013.7 |
| 20260904073011 | 59 | 356 | 5.0 | 12.0 | 0.00 | 0.00 | 0.00 | 69 | 1013.6 |